Other Public Products
Issued by NWS Grand Forks, ND

Home | Current Version | Previous Version | Text Only | Print | Product List | Glossary On
Versions: 1 2 3 4 5 6 7 8 9 10 11 12 13 14 15 16 17 18 19 20 21 22 23 24 25 26 27 28 29 30 31 32 33 34 35 36 37 38 39 40 41 42 43 44 45 46 47 48 49 50
000
FPUS83 KFGF 221931
OPUFGF
PRAIRIE TO PINES WEATHER ROUNDUP
NATIONAL WEATHER SERVICE EASTERN NORTH DAKOTA/GRAND FORKS ND
200 PM CDT THU JUN 22 2017

 **SATELLITE DATA USED TO AUGMENT SKY COVER AT AUTOMATED STATIONS**
 *****  WEATHER ACROSS EASTERN NORTH DAKOTA  *****

CITY           SKY/WX    TMP DP  RH WIND       PRES   REMARKS
GRAND FORKS    PTSUNNY   76  44  32 W21G31    29.67S
GRAND FORKS AF FAIR      73  45  36 W15G29    29.68F
GRAND CITY NWS NOT AVBL
BUXTON           N/A     78  49  37 W15G28      N/A
DEVILS LAKE    FAIR      70  39  32 W24G32    29.72F
FARGO          PTSUNNY   76  46  34 W17G24    29.70F
WAHPETON ARPT  FAIR      73  39  29 W7        29.75S
$$

 *****  WEATHER ACROSS CENTRAL AND WESTERN NORTH DAKOTA  *****

CITY           SKY/WX    TMP DP  RH WIND       PRES   REMARKS
JAMESTOWN      FAIR      75  42  30 W22G29    29.76S
BISMARCK       FAIR      77  35  21 W23       29.82F
MINOT          PTSUNNY   73  34  23 W25G38    29.75F
MINOT AFB      FAIR      70  35  27 W26G43    29.73F
GARRISON         N/A     70  36  28 NW25G35   29.79F
WILLISTON      PTSUNNY   74  33  22 W31G45    29.83F
DICKINSON      FAIR      71  25  17 W25G32    29.86F
HETTINGER      FAIR      75  32  20 NW21G30   29.91S
$$

 *****  OTHER OBSERVATIONS NORTHEAST NORTH DAKOTA  *****

CITY           SKY/WX    TMP DP  RH WIND       PRES   REMARKS
WALHALLA       NOT AVBL
LANGDON        FAIR      72  39  30 W30G46    29.65F
CAVALIER       FAIR      72  41  33 W22G31    29.62F
GRAFTON        FAIR      73  43  33 W25       29.67S
CANDO          NOT AVBL
FORT TOTTEN      N/A     71  40  32 NW10      29.95
ROLLA            N/A     66  37  34 W35G46    29.67R
RUGBY          NOT AVBL
 ***** THE ABOVE OBSERVATIONS ARE NON NWS ARE NOT QUALITY
        CONTROLLED AND MAY MIS-REPORT RAIN FOR SNOW...
$$

 *****  OTHER OBSERVATIONS SOUTHEAST NORTH DAKOTA *****

CITY           SKY/WX    TMP DP  RH WIND       PRES   REMARKS
COOPERSTOWN    FAIR      73  41  31 W23G33    29.74F
VALLEY CITY    FAIR      73  46  38 W20G31    29.76S
OAKES          NOT AVBL
GWINNER        PTCLDY    75  48  38 W10G16    29.75F
SHEYENNE NWR     N/A     78  47  32 W9        29.95S
BUFFALO          N/A     76  41  28 N12G33      N/A
WYNDMERE       NOT AVBL
 ***** THE ABOVE OBSERVATIONS ARE NON NWS ARE NOT QUALITY
       CONTROLLED AND MAY MIS-REPORT RAIN FOR SNOW...
$$

  *****  WEATHER ACROSS NORTHERN MINNESOTA  *****

CITY           SKY/WX    TMP DP  RH WIND       PRES   REMARKS
FLAG ISLAND    FAIR      70  39  32 SW17      29.58S
WARROAD        FAIR      72  48  43 SW13G24   29.62F
ROSEAU           N/A     72  46  40 W15G22    29.62F
HALLOCK        FAIR      75  37  25 W21G30    29.62F
THF RVR FALLS  PTSUNNY   71  48  43 W21       29.67F
HALSTAD          N/A     76  48  37 W18         N/A
FOSSTON        FAIR      73  48  40 W17G36    29.69S
BAUDETTE       FAIR      73  42  32 W14       29.62F
WASKISH        CLOUDY    72  54  53 SW10      29.65F
CROOKSTON      FAIR      75  48  38 W20G26    29.68R
$$
  *****  WEATHER ACROSS CENTRAL AND WEST MINNESOTA  *****

CITY           SKY/WX    TMP DP  RH WIND       PRES   REMARKS
BEMIDJI        FAIR      74  46  36 W15G23    29.68F
PARK RAPIDS    FAIR      77  43  29 NW15G22   29.71F
WADENA         FAIR      73  50  43 W10       29.73F
DETROIT LAKES  FAIR      73  45  35 W14G20    29.74S
MOORHEAD       FAIR      77  45  31 W15       29.71F
FERGUS FALLS   FAIR      73  48  40 NW8       29.72S
ELBOW LAKE     FAIR      73  50  45 NW7       29.76S
MORRIS MN      FAIR      72  61  68 W7        29.76S
STAPLES        FAIR      75  45  33 W6        29.73S
WHEATON        FAIR      75  43  31 CALM      29.77S
$$
  *****  WEATHER ELSEWHERE ACROSS MINNESOTA  *****

CITY           SKY/WX    TMP DP  RH WIND       PRES   REMARKS
DULUTH         FAIR      73  50  44 W12G17    29.69F
INTRNTL FALLS  FAIR      73  42  32 W15G22    29.62F
ELY            FAIR      72  39  30 W10       29.66S
CLOQUET        FAIR      75  46  35 W7        29.69F
BRAINERD       FAIR      75  41  29 W8        29.72F
HIBBING        FAIR      73  48  41 NW9G21    29.69R
ALEXANDRIA     FAIR      71  58  63 SW9       29.77R
SAINT CLOUD    FAIR      63  61  93 W8        29.75R
MINNEAPOLIS    LGT RAIN  70  65  84 N5        29.73R
$$

  *****  WEATHER ACROSS SOUTH DAKOTA  *****

CITY           SKY/WX    TMP DP  RH WIND       PRES   REMARKS
SIOUX FALLS    CLOUDY    75  65  70 NE10      29.74F
BROOKINGS      CLOUDY    66  57  72 NE10      29.80S
WATERTOWN      FAIR      65  52  62 CALM      29.81S
HURON          FAIR      71  57  61 NE9       29.81S
SISSETON         N/A     78  44  29 N10       29.75F
ABERDEEN       FAIR      78  45  30 N8        29.79F
MITCHELL       CLOUDY    70  61  73 N17       29.79F
PIERRE         FAIR      75  46  35 VRB6G18   29.83F
MOBRIDGE       FAIR      79  40  24 NW10      29.80F
RAPID CITY     PTSUNNY   72  44  36 N16G25    29.94F
$$

  *****  SOME WEATHER IN NEARBY STATES *****

CITY           SKY/WX    TMP DP  RH WIND       PRES   REMARKS
GLASGOW MT     PTSUNNY   67  30  25 NW26G38   29.91R
GREAT FALLS MT PTSUNNY   64  30  27 NW21      30.11S
CHEYENNE WY    FAIR      72  40  31 N24G33    30.00F
SCOTTSBLUFF NE FAIR      78  50  37 NE16G25   29.92S
OMAHA NE       PTSUNNY   88  68  51 S13       29.64F HX  91
DES MOINES IA  PTSUNNY   83  70  64 S10       29.69F
DAVENPORT IA   PTSUNNY   84  69  60 S9        29.77S
CHICAGO IL     PTSUNNY   85  68  56 S14G22    29.80S
EAU CLAIRE WI  CLOUDY    70  68  93 S5        29.70R
LA CROSSE WI   FAIR      72  69  90 S8        29.73F
$$

  *****  SOME NATIONAL WEATHER *****

CITY           SKY/WX    TMP DP  RH WIND       PRES   REMARKS
LA GUARDIA NY  FAIR      81  57  43 S12       29.95F
RALEIGH NC     LGT RAIN  82  73  74 W8        30.10S
ATLANTA GA     PTSUNNY   82  73  74 S8        30.05F
NEW ORLEANS LA PTSUNNY   87  76  69 S25G39    29.81F HX  97
OKLAHOMA CITY  FAIR      90  56  31 VRB5      29.72F
ALBUQUERQUE NM FAIR      94  37  13 NE3       30.00F
SALT LAKE CITY FAIR      83  33  16 N14G20    30.05S
LOS ANGELES CA FAIR      71  61  70 S7        29.85R
BOISE ID       FAIR      77  33  20 NW22G33   30.10F
SEATTLE WA     FAIR      68  48  48 N13       30.30F
$$

*** WEATHER ACROSS MANITOBA...SASKATCHEWAN AND ONTARIO ***
                ***ONTARIO***

CITY           SKY/WX    TMP DP  RH WIND       PRES   REMARKS
GERALDTON      CLOUDY    64  55  72 SW15      29.57R
THUNDER BAY    PTSUNNY   75  48  38 W10G18    29.58F
SIOUX LOOKOUT  MOSUNNY   72  45  37 W12G18    29.55F
TORONTO        PTSUNNY   73  61  64 S9        29.85F
BIG TROUT LK   PTSUNNY   55  52  88 SE10      29.52S
PICKLE LAKE    PTSUNNY   68  46  45 W8        29.50F
DRYDEN         SUNNY     70  39  32 W24G30    29.56F
KENORA         PTSUNNY   70  43  37 W15G30    29.58F
$$
                *** MANITOBA***

CITY           SKY/WX    TMP DP  RH WIND       PRES   REMARKS
BRANDON        CLOUDY    59  43  55 W30G39    29.61R
DAUPHIN        CLOUDY    57  50  77 W25G33    29.51S
ISLAND LAKE    PTSUNNY   59  52  77 SE5       29.45F
PILOT MOUND      N/A     64  36  34 W21G35      N/A
THE PAS        PTSUNNY   59  54  82 W7        29.48R
THOMPSON       PTSUNNY   61  54  77 SE3       29.47R
WINNIPEG       PTSUNNY   70  45  40 W25G32    29.54F
LYNN LAKE      SUNNY     66  50  55 N18G28    29.55R
CHURCHILL      PTSUNNY   43  37  81 N24G31    29.62R
GILLAM         PTSUNNY   66  52  59 SE13G18   29.48S
$$
                ***SASKATCHEWAN***

CITY           SKY/WX    TMP DP  RH WIND       PRES   REMARKS
ESTEVAN        CLOUDY    61  39  44 W26G41    29.75R
KINDERSLEY     LGT RAIN  50  45  81 NW26G39   29.94R
LLOYDMINSTER   CLOUDY    54  43  66 NW21G30   29.98R
PRINCE ALBERT  CLOUDY    55  50  82 N25G39    29.73R
REGINA         LGT RAIN  50  50 100 W26G33    29.74R FOG
YORKTON        PTSUNNY   59  50  72 W21G28    29.59S


USA.gov is the U.S. government's official web portal to all federal, state and local government web resources and services.